This demonstration page uses our WeatherBlox Daily Observations layout. Learn more.

39.08367, -84.50855

Hourly Observations for January 11, 2019

Temp ( °F °C ) Dew Point ( °F °C ) Humidity (%) Winds ( mph kmh ) Pressure ( in mb ) Visibility ( mi km ) Precip ( " mm )
12:53 am 00:53 Cloudy 28 -2.2 17 -8.3 63 63 N 6 9 30.39 1029 10 16.09344 0 0
1:53 am 01:53 Cloudy 28 -2.2 18 -7.8 66 66 NNE 6 9 30.39 1029 10 16.09344 0 0
2:53 am 02:53 Cloudy 28 -2.2 18 -7.8 66 66 NNW 3 6 30.39 1029 10 16.09344 0 0
3:53 am 03:53 Cloudy 28 -2.2 18 -7.8 66 66 Calm 30.39 1029 10 16.09344 0 0
4:53 am 04:53 Cloudy 28 -2.2 18 -7.8 66 66 Calm 30.39 1029 10 16.09344 0 0
5:53 am 05:53 Cloudy 28 -2.2 18 -7.8 66 66 ENE 3 6 30.42 1030 10 16.09344 0 0
6:53 am 06:53 Cloudy 28 -2.2 18 -7.8 66 66 ENE 3 6 30.42 1030 10 16.09344 0 0
7:53 am 07:53 Cloudy 28 -2.2 18 -7.8 66 66 ENE 6 9 30.42 1030 10 16.09344 0 0
8:53 am 08:53 Cloudy 28 -2.2 18 -7.8 66 66 E 5 7 30.45 1031 10 16.09344 0 0
9:53 am 09:53 Cloudy 28 -2.2 18 -7.8 66 66 SE 7 11 30.45 1031 10 16.09344 0 0
10:53 am 10:53 Cloudy 29 -1.7 19 -7.2 66 66 S 6 9 30.48 1032 10 16.09344 0 0
11:53 am 11:53 Cloudy 31 -0.6 19 -7.2 61 61 undefined N/A 30.45 1031 10 16.09344 0 0
12:53 pm 12:53 Mostly Cloudy 32 0 19 -7.2 59 59 E 3 6 30.42 1030 10 16.09344 0 0
1:53 pm 13:53 Mostly Sunny 34 1.1 20 -6.7 56 56 VRB 5 7 30.39 1029 10 16.09344 0 0
2:53 pm 14:53 Sunny 34 1.1 19 -7.2 54 54 ENE 5 7 30.36 1028 10 16.09344 0 0
3:53 pm 15:53 Sunny 34 1.1 20 -6.7 56 56 E 5 7 30.36 1028 10 16.09344 0 0
4:53 pm 16:53 Sunny 33 0.6 20 -6.7 58 58 E 7 11 30.36 1028 10 16.09344 0 0
5:53 pm 17:53 Mostly Cloudy 32 0 20 -6.7 61 61 ENE 6 9 30.36 1028 10 16.09344 0 0
6:53 pm 18:53 Cloudy 32 0 20 -6.7 61 61 ENE 6 9 30.36 1028 10 16.09344 0 0
7:53 pm 19:53 Mostly Cloudy 31 -0.6 21 -6.1 67 67 NE 5 7 30.36 1028 10 16.09344 0 0
8:53 pm 20:53 Mostly Clear 31 -0.6 21 -6.1 67 67 NE 6 9 30.36 1028 10 16.09344 0 0
9:53 pm 21:53 Clear 31 -0.6 21 -6.1 67 67 NE 5 7 30.36 1028 10 16.09344 0 0
10:53 pm 22:53 Cloudy 32 0 21 -6.1 64 64 NE 6 9 30.36 1028 10 16.09344 0 0
11:53 pm 23:53 Cloudy 32 0 21 -6.1 64 64 NE 3 6 30.36 1028 10 16.09344 0 0

Powered by AerisWeather